Skip Page Navigation
NASA JPL Caltech
NASA Logo - Jet Propulsion Laboratory + View the NASA Portal
+ Center for Near-Earth Object Studies
JPL Home Earth Solar System Stars & Galaxies Technology
JPL Solar System Dynamics
BODIES ORBITS EPHEMERIDES TOOLS PHYSICAL DATA DISCOVERY FAQ SITE MAP
JPL Small-Body Database Browser
Search: [ help ]  
134632 (1999 UG7)
Classification: Main-belt Asteroid          SPK-ID: 2134632
Ephemeris | Orbit Diagram | Orbital Elements | Mission Design | Physical Parameters | Discovery Circumstances | Close-Approach Data ]

[ show orbit diagram ]
Orbital Elements at Epoch 2459000.5 (2020-May-31.0) TDB
Reference: JPL 22 (heliocentric ecliptic J2000)
 Element Value Uncertainty (1-sigma)   Units 
e .1732039553299234 7.045e-08  
a 2.324339783674555 1.2237e-08 au
q 1.921754939611424 1.6497e-07 au
i 25.34169402200179 7.4053e-06 deg
node 353.3682465710261 1.0348e-05 deg
peri 25.30566666601369 1.8696e-05 deg
M 318.5482408322055 1.5698e-05 deg
tp 2459149.535015105391
(2020-Oct-27.03501511)
5.6555e-05 TDB
period 1294.338443412207
3.54
1.0221e-05
2.798e-08
d
yr
n .2781343641860378 2.1964e-09 deg/d
Q 2.726924627737686 1.4356e-08 au
  Orbit Determination Parameters
   # obs. used (total)      917  
   data-arc span      7619 days (20.86 yr)  
   first obs. used      1999-09-24  
   last obs. used      2020-08-03  
   planetary ephem.      DE431  
   SB-pert. ephem.      SB431-N16  
   condition code      0  
   norm. resid. RMS      .51469  
   source      ORB  
   producer      Otto Matic  
   solution date      2020-Aug-25 10:57:23  

Additional Information
 Earth MOID = .935398 au 
 Jupiter MOID = 2.77055 au 
 T_jup = 3.428 
[ show covariance matrix ]

Ephemeris | Orbit Diagram | Orbital Elements | Mission Design | Physical Parameters | Discovery Circumstances | Close-Approach Data ]

Physical Parameter Table
Parameter Symbol Value Units Sigma Reference Notes
absolute magnitude H 14.7   n/a MPO338173  

134632 (1999 UG7)          Discovered 1999-Oct-30 by LINEAR at Socorro
Reference: 20060907/Numbers.arcLast Updated: 2006-09-10

[ show close-approach data ]
Alternate Designations
 1999 UG7 = 2001 FW147 
Ephemeris | Orbit Diagram | Orbital Elements | Mission Design | Physical Parameters | Discovery Circumstances | Close-Approach Data ]
ABOUT SSD CREDITS/AWARDS PRIVACY/COPYRIGHT GLOSSARY LINKS
FirstGov 2020-Oct-27 11:45 UT
(server date/time)  
NASA Home Page
Site Manager:   Ryan S. Park
Webmaster  Alan B. Chamberlin